Regional Weather Roundup
Issued by NWS

Current Version | Previous Version | Text Only | Print | Product List | Glossary On
Versions: 1 2 3 4 5 6 7 8 9 10 11 12 13 14 15 16 17 18 19 20 21 22 23 24 25 26 27 28 29 30 31 32 33 34 35 36 37 38 39 40 41 42 43 44 45 46 47 48 49 50
000
ASUS44 KFWD 310415
RWRTX
NORTH TEXAS HOURLY WEATHER ROUNDUP
NATIONAL WEATHER SERVICE FORT WORTH TX
1000 PM CST FRI JAN 30 2015

NOTE: "FAIR" INDICATES FEW OR NO CLOUDS BELOW 12,000 FEET WITH NO
SIGNIFICANT WEATHER AND/OR OBSTRUCTIONS TO VISIBILITY.

TXZ118-119-310500-
DALLAS/FORT WORTH METROPLEX

CITY           SKY/WX    TMP DP  RH WIND       PRES   REMARKS
DFW AIRPORT    CLOUDY    52  29  41 E10       30.31F
DALLAS LOVE    CLOUDY    53  29  39 E10       30.32F
FTW MEACHAM    CLOUDY    53  30  41 E9        30.31F
DAL-EXECUTIVE  CLOUDY    53  29  39 E12       30.30F
FTW-ALLIANCE   CLOUDY    51  28  41 E8        30.31F
FTW-SPINKS     CLOUDY    51  32  48 E5        30.32F
ARLINGTON      CLOUDY    54  28  36 E8        30.31F
GRAND PRAIRIE  CLOUDY    52  32  46 E8        30.33F
ADDISON        CLOUDY    52  29  41 E8        30.34F
MESQUITE       CLOUDY    50  31  47 E6        30.34F
LANCASTER      CLOUDY    49  31  49 E5        30.34F
$$

TXZ091>094-102>105-117-120-121-131>134-310500-
NORTH CENTRAL TEXAS

CITY           SKY/WX    TMP DP  RH WIND       PRES   REMARKS
SHRMAN/DENISON CLOUDY    50  34  54 E6        30.35F
GAINESVILLE    CLOUDY    48  31  52 E8        30.34F
BOWIE          CLOUDY    48  32  53 E5        30.31F
BRIDGEPORT     CLOUDY    49  35  59 CALM      30.32F
DECATUR        CLOUDY    49  31  50 E8        30.31F
DENTON         CLOUDY    51  30  44 E8        30.32F
MCKINNEY       CLOUDY    49  31  49 E5        30.33F
GREENVILLE     CLOUDY    50  30  46 CALM      30.35S
ROCKWALL       CLOUDY    50  32  50 E8        30.32F
TERRELL        CLOUDY    52  31  44 E7        30.34F
WAXAHACHIE     CLOUDY    50  34  53 E6        30.33F
CLEBURNE       CLOUDY    50  32  50 E7        30.32S
GRANBURY       CLOUDY    51  35  54 SE3       30.32F
$$

TXZ083>090-098>101-113>116-127>130-139>142-154-155-310500-
WESTERN NORTH TEXAS

CITY           SKY/WX    TMP DP  RH WIND       PRES   REMARKS
WICHITA FALLS  CLOUDY    46  32  58 E7        30.30F
WF-KICKAPOO    CLOUDY    41  26  56 E5        30.32S WCI  38
VERNON         MOCLDY    45  27  49 CALM      30.31S
ABILENE        CLOUDY    47  32  56 E13       30.25F
ABILENE-DYESS  CLOUDY    47  33  59 E9        30.25F
BRECKENRIDGE   CLOUDY    49  34  56 SE3       30.30S
GRAHAM         MOCLDY    48  34  57 E3        30.29S
MINERAL WELLS  CLOUDY    48  32  53 SE6       30.29F
STEPHENVILLE   MOCLDY    47  34  61 CALM      30.33S
COMANCHE       CLOUDY    46  37  72 S3        30.30S
BROWNWOOD      CLOUDY    46  34  61 E8        30.29F
COLEMAN        CLOUDY    47  36  66 E14       30.26F
BRADY          PTCLDY    46  36  66 E12       30.24F
$$

TXZ143>147-156>162-174-175-310500-
CENTRAL TEXAS

CITY           SKY/WX    TMP DP  RH WIND       PRES   REMARKS
WACO           CLOUDY    49  36  61 CALM      30.31F
WACO-TSTC      CLEAR     50  36  57 NE5       30.31F
WACO-MCGREGOR  CLOUDY    48  34  57 CALM      30.32S
HILLSBORO      CLOUDY    51  32  47 E6        30.31F
CORSICANA      CLOUDY    52  31  44 E9        30.33F
MEXIA          CLOUDY    51  33  50 CALM      30.31F
HEARNE         CLOUDY    50  35  55 E6        30.32S
CAMERON        CLOUDY    50  36  58 CALM      30.31S
TEMPLE         CLOUDY    46  32  57 E6        30.30S
KILLEEN        CLOUDY    47  38  70 NE7       30.29F
KILLEEN-SKYLRK CLOUDY    48  34  57 CALM      30.28F
FORT HOOD      CLOUDY    49  35  59 E6        30.29F
GATESVILLE     CLOUDY    46  39  76 CALM      30.32F
HAMILTON       CLOUDY    46  36  66 SE5       30.30F
LAMPASAS       CLOUDY    48  38  70 NE3       30.28F
$$

TXZ095>097-106>112-122>126-135>138-148>153-164>167-310500-
EAST TEXAS

CITY           SKY/WX    TMP DP  RH WIND       PRES   REMARKS
PARIS          CLOUDY    46  28  49 E7        30.37F
SULPHUR SPRNGS CLOUDY    47  31  52 E6        30.38S
MOUNT PLEASANT CLOUDY    46  32  56 E6        30.38S
GILMER         CLOUDY    47  32  56 NE3       30.36S
MINEOLA        CLOUDY    46  32  57 CALM      30.36F
TYLER          CLOUDY    51  29  42 E8        30.34S
LONGVIEW       CLOUDY    48  33  56 E5        30.35F
MARSHALL       CLOUDY    48  33  54 E3        30.39S
ATHENS         CLOUDY    50  32  50 E5        30.33F
PALESTINE      CLOUDY    51  32  47 E6        30.34S
JACKSONVILLE   CLOUDY    49  32  52 MISG      30.35F
HENDERSON      CLOUDY    49  31  49 E3        30.36R
NACOGDOCHES    MOCLDY    48  30  49 E6        30.36R
LUFKIN         PTCLDY    49  34  56 E3        30.34S
$$

SUPPLEMENTAL OBSERVATIONS (CENTRAL)

CITY           SKY/WX    TMP DP  RH WIND       PRES   REMARKS
LAKE TEXOMA      N/A     50  32  50 E2          N/A
CADDO GRASSLND   N/A     48  28  46 SE3         N/A
PAT MAYSE LAKE   N/A     48  28  46 E6          N/A
ATHENS           N/A     50  32  50 E6          N/A
LAKE LIMESTONE   N/A     50  32  50 E3          N/A
MCGREGOR         N/A     46  36  66 CALM        N/A
TEMPLE           N/A     48  34  57 E6          N/A
$$

SUPPLEMENTAL OBSERVATIONS (WEST)

CITY           SKY/WX    TMP DP  RH WIND       PRES   REMARKS
LBJ GRASSLAND    N/A     48  32  53 E3          N/A
GRANBURY         N/A     48  32  53 SE2         N/A
COMANCHE         N/A     46  34  61 SE5         N/A
HAMBY            N/A     46  32  57 E9          N/A
IVIE RESERVOIR   N/A     48  34  57 E10         N/A
COLORADO BEND    N/A     46  36  66 E5          N/A
$$

SUPPLEMENTAL OBSERVATIONS (EAST)

CITY           SKY/WX    TMP DP  RH WIND       PRES   REMARKS
CLARKSVILLE      N/A     46  30  53 E5          N/A
CADDO LAKE       N/A     45  32  61 E2          N/A
GILMER           N/A     48  32  53 NE3         N/A
HENDERSON        N/A     48  30  49 E5          N/A
LUFKIN           N/A     45  36  70 MISG        N/A
N SABINE NF      N/A     41  37  87 MISG        N/A
S SABINE NF      N/A     43  39  87 NE2         N/A
$$

SUPPLEMENTAL OBSERVATIONS ARE A COLLECTION OF AUTOMATED INSTRUMENTS
THAT ARE MAINTAINED BY A VARIETY OF FEDERAL AND STATE AGENCIES.
CERTAIN ELEMENTS...SUCH AS HUMIDITY VALUES AND SUSTAINED WIND
SPEEDS...MAY BE APPROXIMATED.



USA.gov is the U.S. government's official web portal to all federal, state and local government web resources and services.